Regional Weather Roundup
Issued by NWS

Home | Current Version | Previous Version | Text Only | Print | Product List | Glossary Off
Versions: 1 2 3 4 5 6 7 8 9 10 11 12 13 14 15 16 17 18 19 20 21 22 23 24 25 26 27 28 29 30 31 32 33 34 35 36 37 38 39 40 41 42 43 44 45 46 47 48 49 50

000
ASUS45 KPSR 300410
RWRAZ

ARIZONA HOURLY REGIONAL WEATHER ROUNDUP
NATIONAL WEATHER SERVICE PHOENIX AZ
900 PM MST SAT APR 29 2017

NOTE: FAIR INDICATES FEW OR NO CLOUDS BELOW 12,000 FEET WITH NO
SIGNIFICANT WEATHER AND/OR OBSTRUCTIONS TO VISIBILITY.

AZZ001>003-036-300500-
NORTHWEST ARIZONA

CITY           SKY/WX    TMP DP  RH WIND       PRES   REMARKS
BULLHEAD CITY  CLEAR     73  18  12 CALM      29.98R
KINGMAN        CLEAR     52  15  23 E6        30.09R
$$

AZZ004>008-015-016-018-300500-
NORTH CENTRAL ARIZONA

CITY           SKY/WX    TMP DP  RH WIND       PRES   REMARKS
GRAND CANYON   CLEAR     35  11  36 CALM      30.15R
WILLIAMS       CLEAR     41  14  33 NW7       30.15R
PRESCOTT       CLEAR     47  14  26 NW5       30.10R
FLAGSTAFF      CLEAR     34  11  38 CALM      30.14R
PAYSON         CLEAR     50  12  22 NE7       30.12R
PAGE           CLEAR     59  15  18 N12       30.08R
$$

AZZ009>014-017-300500-
NORTHEAST ARIZONA

CITY           SKY/WX    TMP DP  RH WIND       PRES   REMARKS
WINSLOW        CLEAR     50  12  21 CALM      30.08R
SAINT JOHNS    PTCLDY    38  33  82 S5        30.09R WCI  34
WINDOW ROCK    CLEAR     35  23  61 CALM      30.09R
SHOW LOW       CLEAR     39  19  45 CALM      30.12R
$$

AZZ540-542>544-546-548-300500-
GREATER PHOENIX AREA

CITY           SKY/WX    TMP DP  RH WIND       PRES   REMARKS
PHOENIX        CLEAR     74  21  13 SW10      29.91R
BUCKEYE        CLEAR     70  18  13 NW7       29.94R
LUKE AFB       CLEAR     73  19  13 NW7       29.91R
DEER VALLEY    CLEAR     70  14  11 CALM      29.92R
SCOTTSDALE     CLEAR     73  21  14 W3        29.94R
MESA-GATEWAY   CLEAR     68  23  18 S6        29.95R
CHANDLER       CLEAR     72  19  14 S12       29.94R
$$

AZZ539-553-300500-
SOUTHWEST MARICOPA COUNTY AND PINAL COUNTY

CITY           SKY/WX    TMP DP  RH WIND       PRES   REMARKS
CASA GRANDE    CLEAR     69  22  16 SW9       29.97R
GILA BEND      FAIR      70  15  12 SW9       29.95R
$$

AZZ503-504-507>509-300500-
SOUTHEAST ARIZONA

CITY           SKY/WX    TMP DP  RH WIND       PRES   REMARKS
TUCSON         CLEAR     67  16  14 NW3       30.04R
DAVIS-MONTHAN  CLEAR     63  17  16 NW7       30.03R
NOGALES        CLEAR     54  11  18 E5        30.07R
SIERRA VISTA   CLEAR     52  10  18 W6        30.11R
DOUGLAS        CLEAR     53  10  18 NW3       30.07R
SAFFORD        PTCLDY    60  21  22 SE8       30.01R
$$

AZZ532-300500-
SOUTHWEST ARIZONA

CITY           SKY/WX    TMP DP  RH WIND       PRES   REMARKS
YUMA           CLEAR     76  18  11 N5        29.97R
$$

CAZ041-043-047-048-061-525>527-560>570-300500-
SOUTHERN CALIFORNIA

CITY           SKY/WX    TMP DP  RH WIND       PRES   REMARKS
DOWNTOWN L.A.  CLEAR     68  43  40 CALM      30.00R
L.A. AIRPORT   CLEAR     62  47  57 W13       30.01R
SAN DIEGO      CLEAR     70  37  29 N7        30.06R
BURBANK        CLEAR     72  24  16 CALM      30.03R
ONTARIO        CLEAR     68  24  19 W5        30.04R
RIVERSIDE      CLEAR     68  28  22 W6        30.04R
PALM SPRINGS   CLEAR     78  14   9 SW6       30.01R
EL CENTRO NAS  CLEAR     75  18  11 SW7       29.99R
IMPERIAL       CLEAR     71  30  21 W5        29.96R
BLYTHE         CLEAR     72  15  11 NW7       29.98R
NEEDLES        CLEAR     73  15  11 NW6       29.99R
$$

NVZ020-UTZ003-300500-
SOUTHERN NEVADA-UTAH

CITY           SKY/WX    TMP DP  RH WIND       PRES   REMARKS
LAS VEGAS      CLEAR     73  11   9 NE5       30.04R
SALT LAKE CITY PTCLDY    49  34  56 E5        30.21R
$$

NMZ009-TXZ055-300500-
NEW MEXICO-WEST TEXAS

CITY           SKY/WX    TMP DP  RH WIND       PRES   REMARKS
ALBUQUERQUE    CLOUDY    38  35  89 SE6       30.08R WCI  33
EL PASO        PTCLDY    50  31  48 N14       30.03R
$$


........................KEY........................
SKY/WX - SKY CONDITION/WEATHER
TMP    - TEMPERATURE IN FAHRENHEIT
DP     - DEW POINT IN FAHRENHEIT
RH     - RELATIVE HUMIDITY IN PERCENT
WIND   - DIRECTION AND SPEED IN MILES PER HOUR (MPH)
VRB    - VARIABLE WIND DIRECTION
PRES   - MEAN SEA LEVEL PRESSURE IN INCHES OF MERCURY
         F - FALLING PRESSURE   R - RISING PRESSURE
         S - STEADY PRESSURE
VSB    - VISIBILITY IN MILES
HX     - HEAT INDEX IN FAHRENHEIT
WCI    - WIND CHILL INDEX IN FAHRENHEIT
TC     - TEMPERATURE IN CELSIUS WHICH IS ALSO KNOWN AS
         TEMPERATURE IN CENTIGRADE
AFB    - AIR FORCE BASE
         LUKE AFB IS LUKE AIR FORCE BASE
         DAVIS-MONTHAN IS DAVIS-MONTHAN AIR FORCE BASE
NAS    - NAVAL AIR STATION
         EL CENTRO NAS IS EL CENTRO NAVAL AIR STATION
N/A    - NOT AVAILABLE




USA.gov is the U.S. government's official web portal to all federal, state and local government web resources and services.